Location: Stara Lesna
(49.1528°N, 20.2911°E)
Time: 02:48:34
(UTC+02:00)

Cosmos 841 Rocket - Pass Details

Date: 13 July 2020
Orbit: 747 x 772 km, 74.0° (Epoch: 11 August)

Event Time Altitude Azimuth Distance (km) Brightness Sun altitude
Rises 03:48:04 0° 338° (NNW) 3,208 7.1 -8.2°
Reaches altitude 10° 03:50:28 10° 343° (NNW) 2,282 6.4 -7.9°
Maximum altitude 03:55:35 59° 63° (ENE) 872 4.2 -7.3°
Drops below altitude 10° 04:00:41 10° 143° (SE) 2,280 5.9 -6.8°
Sets 04:03:05 0° 147° (SSE) 3,205 6.6 -6.5°
